KUIPER-00113

导读 | 豆包AI

KUIPER-00113是美国亚马逊柯伊伯(Kuiper)低轨宽带卫星星座的组网卫星,于2025年10月14日发射升空。柯伊伯星座计划部署3236颗Ka波段卫星,运行在590至630公里近地轨道,旨在提供高速、低延迟的全球卫星宽带服务,可满足消费者、企业及运营商的网络接入需求,补充地面网络覆盖盲区。KUIPER-00113的发射是该星座大规模组网进程中的组成部分,依托先进通信技术推动星座部署落地,助力亚马逊抢占全球低轨卫星互联网市场。

基本信息
目录编号:
65948
目录名称:
KUIPER-00113
国际标识:
2025-228B
轨道中心:
EARTH
卫星名称:
KUIPER-00113
卫星全名:
KUIPER-00113
卫星状态:
在轨 (已飞行223 天)
发射日期:
2025-10-14 UTC
国别 :
美国 (US)
星等 :
--
轨道信息
数据来源 国际轨道数据
星历时间: 2026-05-24T07:06:22+0800
1天前
查看轨道信息
半长轴: 7007.672km
偏心率: 0.0001042
轨道倾角: 51.899°
近地点辐角 101.851°
升交点赤经 22.724°
平近点角 258.257°
近地点: 628.804km
远地点: 630.266km
周期: 97.302分钟
每日圈数: 14.799334
详细信息
使用方式:
暂无
2D轨道图
3D轨道图
轨道高度分析图
轨道倾角分析图
轨道综合分析图
查看轨道综合分析图